Flag for Finland Weather past 2 weeks in Helsinki, Finland

Now
46 °F

Clear.


Feels Like: 46 °F
Forecast: 51 / 68 °F
Wind: No wind

Location: Helsinki Malmi Airport

Current Time: Aug 30, 2015 at 7:47:32 AM

Latest Report: Aug 30, 2015 at 6:50 AM


Visibility: 3 mi

Pressure: 30.01 "Hg

Humidity: 100%

Dew point: 46 °F

Location of HelsinkiLocation

Historic Weather in Helsinki — Graph

°F

Helsinki temperature yesterday

Maximum temperature yesterday: 70 °F (at 2:20 PM)
Minimum temperature yesterday: 50 °F (at 6:50 AM)
Average temperature yesterday: 62 °F

Past Weeks' High & Low Weather Summary

 TemperatureHumidityPressure
High77 °F (Aug 23, 1:20 PM)100% (Aug 15, 5:50 AM)30.45 "Hg (Aug 15, 5:50 AM)
Low43 °F (Aug 18, 5:50 AM)33% (Aug 16, 3:50 PM)29.62 "Hg (Aug 28, 12:20 PM)
Average62 °F76%30.15 "Hg
* Reported Aug 15 5:20 AM — Aug 30 5:50 AM, Helsinki, Weather by CustomWeather, © 2015

Note: Actual official high and low records may vary slightly from our data, if they occured in-between our weather recording intervals... More about our weather records

Advertising

Helsinki weather history for previous 24 hours

 ConditionsComfort  
Time TempWeatherWind HumidityBarometerVisibility
5:50 AM
Sun, Aug 30
45 °FFog.No wind100%30.01 "Hg1 mi
5:20 AM46 °FClear.1 mph100%30.01 "HgN/A
4:50 AM46 °FLight fog.No wind100%30.01 "Hg0 mi
4:20 AM48 °FLight fog.No wind94%30.01 "Hg0 mi
3:50 AM46 °FLight fog.No wind100%30.01 "Hg0 mi
3:20 AM48 °FFog.No wind94%30.01 "Hg1 mi
2:50 AM48 °FClear.No wind100%30.01 "Hg4 mi
2:20 AM50 °FClear.1 mph94%30.01 "Hg10 mi
1:50 AM52 °FClear.1 mph94%30.01 "Hg10 mi
1:20 AM52 °FClear.1 mph88%30.01 "Hg10 mi
12:50 AM55 °FClear.2 mph82%30.01 "Hg10 mi
12:20 AM54 °FClear.1 mph88%29.98 "Hg10 mi
11:50 PM
Sat, Aug 29
55 °FClear.1 mph82%29.98 "Hg10 mi
11:20 PM57 °FClear.3 mph77%29.98 "Hg10 mi
10:50 PM59 °FClear.3 mph72%29.98 "Hg10 mi
10:20 PM59 °FClear.2 mph72%29.98 "Hg10 mi
9:50 PM61 °FClear.5 mph68%29.98 "Hg10 mi
9:20 PM61 °FSunny.6 mph68%29.98 "Hg10 mi
8:50 PM63 °FPassing clouds.6 mph64%29.95 "HgN/A
8:20 PM64 °FSunny.5 mph60%29.95 "Hg10 mi
7:50 PM66 °FPassing clouds.6 mph56%29.92 "HgN/A
7:20 PM68 °FPassing clouds.9 mph49%29.92 "HgN/A
6:50 PM68 °FPassing clouds.9 mph53%29.92 "HgN/A
6:20 PM68 °FPassing clouds.13 mph53%29.92 "HgN/A
5:50 PM70 °FPassing clouds.12 mph50%29.89 "HgN/A
5:20 PM70 °FScattered clouds.12 mph50%29.89 "HgN/A
4:50 PM70 °FScattered clouds.14 mph50%29.89 "HgN/A
4:20 PM70 °FScattered clouds.12 mph50%29.86 "HgN/A
3:50 PM70 °FScattered clouds.14 mph50%29.86 "HgN/A
3:20 PM70 °FScattered clouds.15 mph46%29.86 "HgN/A
2:50 PM68 °FScattered clouds.13 mph53%29.86 "HgN/A
2:20 PM70 °FBroken clouds.12 mph53%29.86 "HgN/A
1:50 PM68 °FScattered clouds.12 mph53%29.86 "HgN/A
12:50 PM68 °FScattered clouds.14 mph60%29.86 "HgN/A
12:20 PM66 °FScattered clouds.14 mph64%29.83 "HgN/A
11:50 AM66 °FScattered clouds.12 mph64%29.83 "HgN/A
10:50 AM66 °FScattered clouds.8 mph73%29.83 "HgN/A
10:20 AM64 °FScattered clouds.9 mph68%29.83 "HgN/A
9:50 AM63 °FSunny.8 mph73%29.83 "Hg10 mi
8:50 AM61 °FPassing clouds.6 mph77%29.80 "HgN/A
8:20 AM59 °FPassing clouds.5 mph82%29.80 "HgN/A
7:50 AM57 °FSunny.5 mph88%29.80 "Hg10 mi
7:20 AM54 °FSunny.2 mph100%29.77 "Hg10 mi
Weather by CustomWeather, © 2015

See weather overviewHow to use our weather pages